Location: Bakhuizen
(52.8696°N, 5.4575°E)
Time: 04:36:32
(UTC+00:00)

Cosmos 1818 - Pass Details

Date: 11 May 2021
Orbit: 771 x 802 km, 65.0° (Epoch: 14 June)

Event Time Altitude Azimuth Distance (km) Brightness Sun altitude
Rises 22:23:50 0° 315° (NW) 3,322 7.9 -17.4°
Reaches altitude 10° 22:26:17 10° 313° (NW) 2,388 7.0 -17.5°
Maximum altitude 22:31:42 62° 234° (SW) 904 3.7 -17.7°
Enters shadow 22:34:12 32° 165° (SSE) 1,359 4.2 -17.8°
